Regional Weather Roundup
Issued by NWS Boston, MA

Current Version | Previous Version | Text Only | Print | Product List | Glossary Off
Versions: 1 2 3 4 5 6 7 8 9 10 11 12 13 14 15 16 17 18 19 20 21 22 23 24 25 26 27 28 29 30 31 32 33 34 35 36 37 38 39 40 41 42 43 44 45 46 47 48 49 50
518 ASUS41 KBOX 302210 RWRBOX REGIONAL WEATHER ROUNDUP NATIONAL WEATHER SERVICE TAUNTON MA 600 PM EDT SUN APR 30 2017 NOTE: "FAIR" INDICATES FEW OR NO CLOUDS BELOW 12,000 FEET WITH NO SIGNIFICANT WEATHER AND/OR OBSTRUCTIONS TO VISIBILITY. MAZALL-302300- EASTERN MASSACHUSETTS CITY SKY/WX TMP DP RH WIND PRES REMARKS BOSTON CLOUDY 47 37 68 S7 30.26F BEVERLY CLOUDY 45 36 70 S12 30.25S LAWRENCE CLOUDY 48 35 60 VRB6 30.27S BEDFORD CLOUDY 45 39 79 E8 30.24F BLUE HILL N/A 44 36 73 SE8 30.24S NORWOOD CLOUDY 47 38 71 SE7 30.26F MARSHFIELD CLOUDY 46 37 71 SE8 30.27S PLYMOUTH CLOUDY 46 35 65 SE6 30.27F TAUNTON CLOUDY 47 36 65 E3 30.26F NEW BEDFORD CLOUDY 47 37 68 SE10 30.26F $$ MAZALL-302300- CAPE COD AND THE ISLANDS CITY SKY/WX TMP DP RH WIND PRES REMARKS FALMOUTH CLOUDY 46 36 66 MISG 30.28S HYANNIS CLOUDY 47 36 65 VRB6 30.26R CHATHAM CLOUDY 46 37 71 SE7 30.29R PROVINCETOWN CLOUDY 45 37 73 SE5 30.28F NANTUCKET CLOUDY 46 36 68 E10 30.27F MARTHAS VNYRD CLOUDY 49 36 61 E16 30.26F $$ MAZALL-302300- CENTRAL AND WESTERN MASSACHUSETTS CITY SKY/WX TMP DP RH WIND PRES REMARKS WORCESTER CLOUDY 50 41 71 SE8 30.22S FITCHBURG CLOUDY 51 44 77 SE9 30.23S ORANGE CLOUDY 50 46 86 CALM 30.20F SPRINGFIELD CLOUDY 53 44 70 CALM 30.20F WESTFIELD CLOUDY 53 43 68 S3 30.21F NORTH ADAMS CLOUDY 55 39 54 E12G22 30.18S PITTSFIELD CLOUDY 52 40 63 VRB7 30.17F $$ RIZALL-302300- RHODE ISLAND CITY SKY/WX TMP DP RH WIND PRES REMARKS PROVIDENCE CLOUDY 52 39 61 S10 30.26S NEWPORT CLOUDY 49 39 68 SE7 30.26S BLOCK ISLAND CLOUDY 48 39 71 E14 30.27R SMITHFIELD PTSUNNY 52 37 56 VRB7 30.25S WESTERLY CLOUDY 49 40 71 SE9 30.28R $$ CTZALL-302300- CONNECTICUT CITY SKY/WX TMP DP RH WIND PRES REMARKS BRADLEY INTL CLOUDY 55 44 66 S3 30.22S HARTFORD CLOUDY 54 39 57 S12 30.24R BRIDGEPORT CLOUDY 52 43 71 E10 30.25R DANBURY CLOUDY 53 42 66 S7 30.24R GROTON CLOUDY 49 40 71 SE9 30.26R NEW HAVEN CLOUDY 51 38 60 E10 30.26R CHESTER CLOUDY 50 36 57 VRB7 30.26R MERIDEN CLOUDY 54 38 54 S12 30.24R WILLIMANTIC CLOUDY 55 41 59 S8 30.24R OXFORD CLOUDY 52 37 58 S10 30.25R $$ MEZ002-015-021-024-NHZ003-005-008-011-012-014-VTZ005-008-302300- NORTHERN NEW ENGLAND CITY SKY/WX TMP DP RH WIND PRES REMARKS PORTLAND ME CLOUDY 46 33 60 S8 30.26S BANGOR ME CLOUDY 55 24 30 S3 30.23R CONCORD NH CLOUDY 53 39 59 E7 30.21F MANCHESTER NH CLOUDY 52 37 56 SE15 30.20S NASHUA NH CLOUDY 51 39 63 SE7 30.24S PORTSMOUTH NH LGT RAIN 45 37 76 SE7 30.23F JAFFREY NH CLOUDY 53 41 63 S8 30.20F KEENE NH CLOUDY 53 39 59 S5 30.20F BURLINGTON VT CLOUDY 45 35 68 N5 30.23R MT. WASHINGTON CLOUDY 39 21 48 SW14 N/A WCI 31 $$ NYZ052-076-302300- EASTERN NEW YORK CITY SKY/WX TMP DP RH WIND PRES REMARKS ALBANY CLOUDY 50 36 58 CALM 30.18F NEW YORK CITY PTSUNNY 58 40 51 E10 30.22R $$ ANZALL-302300- MARINE OBSERVATIONS STATION/POSITION TIME TEMP WIND PRES VSBY WAVE AIR SEA DIR/SP/G HT/PER (UTC) (F) (DEG/KT/KT) (MB) (MI) (FT/S) BOSTON BUOY 2150 45 49 140/ 10/ 12 1023.7F 2/ 6 BUZZARDS BAY 2100 46 120/ 14/ 14 1025.1F NANTUCKET SOUND 2150 49 1024.8F 1/ 7 MASS BAY-STELLWA 2104 45 47 160/ 10/ 12 1024.3S 3/ 3 ISLE OF SHOALS 2100 43 160/ 12/ 13 1024.9F S OF BLOCK IS 2125 49 N/A 4/ 4 $$ ......................KEY......................... SKY/WX - SKY CONDITION/PRESENT WEATHER TMP - TEMPERATURE IN FAHRENHEIT DWPT - DEWPOINT IN FAHRENHEIT RH - RELATIVE HUMIDITY IN PERCENT WIND - DIRECTION AND SPEED IN MPH PRES - MEAN SEA LEVEL PRESSURE IN INCHES OF HG WCI - WIND CHILL INDEX VSB - VISIBILITY IN MILES HX - HEAT INDEX TC - TEMPERATURE IN CELSIUS VRB - VARIABLE WIND DIRECTION N/A - NOT AVAILABLE

USA.gov is the U.S. government's official web portal to all federal, state and local government web resources and services.